Flag for Germany Weather past 2 weeks in Freising, Bavaria, Germany

Now
53 °F

Overcast.


Feels Like: 53 °F
Forecast: 51 / 66 °F
Wind: 1 mph from Southwest

Location: Muenchen Flughafen

Current Time: Apr 26, 2015 at 1:59:37 AM

Latest Report: Apr 26, 2015 at 1:00 AM


Visibility: 9 mi

Pressure: 29.89 "Hg

Humidity: 94%

Dew point: 51 °F

Location of FreisingLocation

Historic Weather in Freising — Graph

°F

Freising temperature yesterday

Maximum temperature yesterday: 67 °F (at 3:00 PM)
Minimum temperature yesterday: 34 °F (at 6:00 AM)
Average temperature yesterday: 53 °F

Past Weeks' High & Low Weather Summary

 TemperatureHumidityPressure
High73 °F (Apr 15, 5:00 PM)98% (Apr 24, 5:00 AM)30.47 "Hg (Apr 24, 5:00 AM)
Low29 °F (Apr 24, 6:00 AM)23% (Apr 15, 6:00 PM)29.82 "Hg (Apr 25, 5:00 PM)
Average51 °F63%30.17 "Hg
* Reported Midnight between Apr 10 and Apr 11 — Midnight between Apr 25 and Apr 26, Freising, Weather by CustomWeather, © 2015

Note: Actual official high and low records may vary slightly from our data, if they occured in-between our weather recording intervals... More about our weather records

Advertising

Freising weather history for previous 24 hours

 ConditionsComfort  
Time TempWeatherWind HumidityBarometerVisibility
12:00 AM
Sun, Apr 26
53 °FOvercast.2 mph95%29.89 "Hg11 mi
11:00 PM
Sat, Apr 25
54 °FOvercast.3 mph95%29.90 "Hg11 mi
10:00 PM54 °FRain. Overcast.2 mph94%29.91 "Hg4 mi
9:00 PM57 °FLight rain. Overcast.5 mph81%29.90 "Hg12 mi
8:00 PM61 °FLight rain. Overcast.3 mph61%29.86 "Hg22 mi
7:00 PM62 °FLight rain. Overcast.3 mph59%29.85 "Hg25 mi
6:00 PM64 °FOvercast.6 mph51%29.83 "Hg25 mi
5:00 PM67 °FOvercast.2 mph46%29.82 "Hg25 mi
4:00 PM66 °FOvercast.3 mph45%29.83 "Hg28 mi
3:00 PM67 °FOvercast.5 mph44%29.84 "Hg28 mi
2:00 PM66 °FOvercast.3 mph39%29.85 "Hg25 mi
1:00 PM67 °FOvercast.5 mph43%29.86 "Hg25 mi
12:00 PM64 °FOvercast.3 mph42%29.87 "Hg25 mi
11:00 AM63 °FOvercast.1 mph50%29.87 "Hg22 mi
10:00 AM58 °FOvercast.1 mph57%29.89 "Hg22 mi
9:00 AM52 °FOvercast.1 mph69%29.91 "Hg19 mi
8:00 AM44 °FOvercast.1 mph85%29.94 "Hg9 mi
7:00 AM36 °FPartly sunny.No wind95%29.96 "Hg7 mi
6:00 AM34 °FPassing clouds.No wind95%29.96 "Hg7 mi
5:00 AM36 °FPassing clouds.No wind94%29.96 "Hg9 mi
4:00 AM35 °FPassing clouds.No wind93%29.98 "Hg9 mi
3:00 AM37 °FPassing clouds.No wind89%29.98 "Hg11 mi
1:00 AM41 °FPassing clouds.No wind84%29.98 "Hg12 mi
Weather by CustomWeather, © 2015

See weather overviewHow to use our weather pages